sat.trackr.live / text

‹ back to catalog

STARLINK-35516

NORAD 65918 · 2025-225J

PAYLOAD ACTIVE UNKNOWN

§ Identity

Operator
Country
US
Launch date
2025-10-08
Launch site
AFWTR
Launch vehicle
Mass (kg)
RCS (m²)

Purposes: comms

External: N2YO · Heavens-Above · Gunter

§ Orbital elements

Epoch: 2026-09-20T22:19:51.585888Z

Period
93.85 min
Inclination
53.1626°
Eccentricity
0.0001258
Mean motion
15.34406418 rev/d
Perigee alt
461.8 km
Apogee alt
463.5 km
Semi-major
6,840.8 km
B*
4.6056e-4
RAAN
337.8642°
Arg perigee
79.4542°
Mean anomaly
280.6603°
Rev number
5,431

§ Raw data

STARLINK-355161 65918U 25225J   26263.93045817  .00015219  00000+0  46056-3 0  99922 65918  53.1626 337.8642 0001258  79.4542 280.6603 15.34406418 54318

JSON: /api/v1/satellites/65918 · /tle

For live sub-satellite position, see the globe view (requires WebGL).

§ Visibility from observer

Set your observer location to see the next 7 days of passes ≥ 10°. The values pass through the URL so the page stays shareable.

No JS? Fill the form by hand. The geolocation button needs JavaScript.